Location: Orange Harbor Mobile Home Park
(26.6923°N, 81.7937°W)
Time: 22:36:22
(UTC+00:00)

PSLV R/B - Pass Details

Date: 19 September 2020
Orbit: 504 x 578 km, 97.8° (Epoch: 24 October)

Event Time Altitude Azimuth Distance (km) Brightness Sun altitude
Rises 10:48:48 0° 14° (NNE) 2,635 7.6 -6.6°
Reaches altitude 10° 10:50:53 10° 16° (NNE) 1,755 6.7 -6.1°
Maximum altitude 10:54:40 73° 101° (E) 555 4.1 -5.3°
Drops below altitude 10° 10:58:30 10° 187° (S) 1,787 6.3 -4.4°
Sets 11:00:38 0° 189° (S) 2,688 7.2 -4.0°
